Flag for Jordan Weather past 2 weeks in Amman, Jordan

Now
59 °F

Haze.


Feels Like: 57 °F
Forecast: 48 / 58 °F
Wind: 12 mph from North

Location: Amman Airport

Current Time: Jan 26, 2015 at 5:12:42 PM

Latest Report: Jan 26, 2015 at 4:00 PM


Visibility: 3 mi

Pressure: 30.09 "Hg

Humidity: 34%

Dew point: 30 °F

Location of AmmanLocation

Historic Weather in Amman — Graph

°F

Amman temperature yesterday

Maximum temperature yesterday: 64 °F (at 3:00 PM)
Minimum temperature yesterday: 46 °F (at 5:00 AM)
Average temperature yesterday: 55 °F

Past Weeks' High & Low Weather Summary

 TemperatureHumidityPressure
High66 °F (Jan 22, 1:00 PM)100% (Jan 16, 3:00 AM)30.39 "Hg (Jan 16, 3:00 AM)
Low30 °F (Jan 13, 3:00 AM)24% (Jan 22, 4:00 PM)29.95 "Hg (Jan 15, 3:00 PM)
Average47 °F70%30.17 "Hg
* Reported Jan 11 4:00 PM — Jan 26 4:00 PM, Amman, Weather by CustomWeather, © 2014

Note: Actual official high and low records may vary slightly from our data, if they occured in-between our weather recording intervals... More about our weather records

Advertising

Amman weather history for previous 24 hours

 ConditionsComfort  
Time TempWeatherWind HumidityBarometerVisibility
4:00 PM
Jan 26
59 °FHaze.12 mph34%30.09 "Hg3 mi
3:00 PM61 °FHaze.16 mph39%30.07 "Hg2 mi
2:00 PM61 °FHaze.10 mph34%30.07 "Hg2 mi
1:00 PM61 °FHaze.9 mph34%30.09 "Hg2 mi
12:00 PM64 °FHaze.9 mph40%30.12 "Hg2 mi
11:00 AM64 °FHaze.No wind40%30.12 "Hg2 mi
10:00 AM59 °FHaze.No wind55%30.12 "Hg2 mi
9:00 AM55 °FHaze.No wind63%30.09 "Hg1 mi
8:00 AM52 °FHaze.No wind67%30.09 "Hg1 mi
7:00 AM52 °FHaze.No wind67%30.09 "Hg1 mi
6:00 AM50 °FHaze.No wind67%30.07 "Hg2 mi
5:00 AM50 °FHaze.No wind76%30.07 "Hg2 mi
4:00 AM50 °FHaze.No wind76%30.07 "Hg3 mi
3:00 AM52 °FHaze.No wind72%30.07 "Hg3 mi
2:00 AM52 °FHaze.No wind72%30.07 "Hg2 mi
1:00 AM54 °FHaze.6 mph67%30.07 "Hg2 mi
12:00 AM54 °FHaze.No wind63%30.07 "Hg2 mi
11:00 PM
Jan 25
52 °FHaze.No wind72%30.07 "Hg2 mi
10:00 PM54 °FHaze.No wind63%30.07 "Hg2 mi
9:00 PM55 °FHaze.No wind55%30.07 "Hg2 mi
8:00 PM57 °FHaze.No wind55%30.07 "Hg2 mi
7:00 PM59 °FHaze.No wind42%30.07 "Hg2 mi
6:00 PM61 °FHaze.No wind36%30.07 "Hg2 mi
5:00 PM64 °FHaze.7 mph32%30.09 "Hg2 mi
Weather by CustomWeather, © 2014

See weather overviewHow to use our weather pages